Tracking 29790 objects as of 12-Oct-2024
HD Live streaming from Space Station
objects crossing your sky now

LATINSAT A

Track LATINSAT A now!
10-day predictions
LATINSAT A is classified as:


NORAD ID: 27612
Int'l Code: 2002-058H
Perigee: 609.5 km
Apogee: 644.6 km
Inclination: 64.6 °
Period: 97.1 minutes
Semi major axis: 6998 km
RCS: 0.0297 m2 (small)
Launch date: December 20, 2002
Source: Argentina (ARGN)
Launch site: TYURATAM MISSILE AND SPACE COMPLEX (TTMTR)

Nanosatellite; planned constellation of 48 satellites, little LEO; asset tracking and monitoring services.
Your satellite tracking list
Your tracking list is empty




NASA's NSSDC Master Catalog

Two Line Element Set (TLE):
1 27612U 02058H   24285.77541580  .00008498  00000-0  10534-2 0  9995
2 27612  64.5558  63.4613 0025075 345.0440  14.9922 14.82984146176575
Source of the keplerian elements: AFSPC